Location: Bishop�s Knoyle
(51.0728°N, 2.1714°W)
Time: 10:09:54
(UTC+00:00)

ATLAS CENTAUR R/B - Visible Passes

Search period start: 17 January 2021 00:00
Search period end: 27 January 2021 00:00
Orbit: 477 x 668 km, 64.7° (Epoch: 12 January)

Date Brightness Start Highest point End Pass type
(mag) Time Alt. Az. Time Alt. Az. Time Alt. Az.
17 Jan 4.1 07:21:30 10° S 07:24:27 23° ESE 07:27:24 10° ENE visible
17 Jan 5.1 17:19:31 10° W 17:21:04 12° WSW 17:22:37 10° SW visible
18 Jan 3.2 07:23:22 10° S 07:26:43 33° ESE 07:30:04 10° ENE visible
21 Jan 4.3 05:53:24 10° SSE 05:55:24 14° ESE 05:57:25 10° E visible
22 Jan 3.8 05:54:49 10° SSE 05:57:37 21° ESE 06:00:25 10° ENE visible
23 Jan 3.0 05:56:38 10° S 05:59:53 30° ESE 06:03:08 10° ENE visible
24 Jan 2.1 05:58:39 10° SSW 06:02:10 45° SE 06:05:42 10° NE visible
25 Jan 1.3 06:01:25 14° SSW 06:04:30 68° SE 06:08:10 10° NE visible
26 Jan 4.1 04:28:37 13° ESE 04:28:37 13° ESE 04:30:14 10° E visible
26 Jan 0.9 06:04:50 25° SW 06:06:52 81° NW 06:10:34 10° NE visible
